Regional Weather Roundup
Issued by NWS

Home | Current Version | Previous Version | Graphics & Text | Print | Product List | Glossary Off
Versions: 1 2 3 4 5 6 7 8 9 10 11 12 13 14 15 16 17 18 19 20 21 22 23 24 25 26 27 28 29 30 31 32 33 34 35 36 37 38 39 40 41 42 43 44 45 46 47 48 49 50

791
ASUS45 KBOU 172307
RWRCO

WEATHER ROUNDUP FOR COLORADO
NATIONAL WEATHER SERVICE DENVER/BOULDER CO
400 PM MST TUE JAN 17 2017

NOTE: "FAIR" INDICATES FEW OR NO CLOUDS BELOW 12000 FEET WITH NO
SIGNIFICANT WEATHER AND/OR OBSTRUCTIONS TO VISIBILITY.

COZ001>005-013-030-031-180000-
...NORTHWEST COLORADO...

CITY           SKY/WX    TMP DP  RH WIND       PRES   REMARKS
CRAIG          FAIR      20  12  71 CALM      30.21R
HAYDEN         FAIR      16  12  86 SW5       30.19S WCI   9
MEEKER         FAIR      33  22  63 CALM      30.16F
MOUNT WERNER   NOT AVBL
STEAMBOAT SPGS FAIR      26  16  65 CALM      30.16S
WALDEN           N/A    N/A N/A N/A CALM      30.16S VSB<1/4
$$

COZ006>008-011-180000-
...WEST CENTRAL VALLEYS...

CITY           SKY/WX    TMP DP  RH WIND       PRES   REMARKS
GRAND JUNCTION CLOUDY    45  27  49 NW3       30.16S
MONTROSE       PTSUNNY   41  30  65 N3        30.17R
EAGLE          SUNNY     36  23  60 W5        30.17S
RIFLE          FAIR      41  26  55 W6        30.15S
DELTA          CLOUDY    45  32  59 CALM      30.16S
NUCLA          FAIR      45  28  53 NW6       30.17S
$$

COZ017>023-064>068-180000-
...SOUTHWEST COLORADO...

CITY           SKY/WX    TMP DP  RH WIND       PRES   REMARKS
DURANGO        CLOUDY    40  32  73 SW9       30.11S
CORTEZ         CLOUDY    43  34  70 SW12      30.12S
PAGOSA SPRINGS CLOUDY    37  28  70 SW3       30.12S
TELLURIDE      FAIR      32  25  76 W7        30.15R WCI  26
WOLF CREEK PAS   N/A     21  21 100 CALM      30.19S
$$

COZ009-010-012-014-032>034-037-058>063-180000-
...CENTRAL COLORADO...

CITY           SKY/WX    TMP DP  RH WIND       PRES   REMARKS
ASPEN          FAIR      33  21  61 N3        30.12R
BUENA VISTA    FAIR      27  20  75 W3        30.07S
COPPER MTN     FAIR      28  16  59 W10       30.15S WCI  19
BERTHOUD PASS  NOT AVBL
COTTONWOOD PAS FAIR      36  27  69 W6        30.09S
GUNNISON       FAIR      25  23  92 S3        30.15S
KREMMLING      FAIR      36  25  64 CALM      30.17S
LEADVILLE      FAIR      33  11  39 N12       30.09R WCI  24
MONARCH PASS   CLOUDY    21  18  86 MISG      30.23S
SALIDA         FAIR      41  26  56 SW10G16   30.14R
SUNLIGHT       FAIR      23  19  86 SW8       30.20R FOG     WCI  14
WILKERSON PASS FAIR      32   9  37 NW6       30.14S WCI  26
$$

COZ069>075-180000-
...SAN LUIS VALLEY/SANGRE DE CRISTO MOUNTAINS...

CITY           SKY/WX    TMP DP  RH WIND       PRES   REMARKS
ALAMOSA        CLOUDY    33  28  81 CALM      30.11S
LA VETA PASS   PTSUNNY   28  23  80 NE24G32   30.09S WCI  14
SAGUACHE       FAIR      32  28  86 CALM      30.12S
$$

COZ035-036-038>040-180000-
...NORTHERN COLORADO FRONT RANGE...

CITY           SKY/WX    TMP DP  RH WIND       PRES   REMARKS
DENVER INTL AP FAIR      43  29  57 CALM      30.00R
DMNS CITY PARK   N/A     46  26  46 NE6G13    30.00S
AURORA         PTCLDY    43  27  51 CALM      30.00S
FRONT RANGE AP PTCLDY    45  30  57 CALM      30.01R
ERIE MUNI ARPT FAIR      43  25  49 CALM      30.01R
BOULDER MUN AP FAIR      43  27  52 CALM      30.00R
CENTENNIAL     FAIR      46  12  25 E3        30.00R
BROOMFIELD     CLEAR     41  28  60 CALM      30.01R
FORT COLLINS   FAIR      45  27  49 S6        30.01R
LONGMONT       FAIR      43  27  52 W3        30.03R
$$

COZ041-046-047-076>085-087-088-180000-
...PIKES PEAK/PALMER DIVIDE AND SOUTHERN FOOTHILLS...

CITY           SKY/WX    TMP DP  RH WIND       PRES   REMARKS
COLO. SPRINGS  FAIR      43  28  55 SE3       30.02S
A. F. ACADEMY  FAIR      45  24  44 CALM      30.00S
SCHRIEVER AFB  NOT AVBL
ELLICOTT       FAIR     N/A N/A N/A S3        30.01R
FALCON         FAIR      44  28  52 SW3       30.02S
FORT CARSON    CLEAR     43  32  65 SW5       30.02R
LIMON          FAIR      43  31  62 SW5       30.01R
MONUMENT HILL  FAIR      41  14  33 E3        30.03R
TRINIDAD       FAIR      33  25  72 NW5       30.02S WCI  29
$$

COZ042>045-048>051-090-091-180000-
...NORTHEAST COLORADO...

CITY           SKY/WX    TMP DP  RH WIND       PRES   REMARKS
GREELEY ARPT   FAIR      46  27  47 S3        30.02R
AKRON          FAIR      38  28  67 SW7       30.01R
BURLINGTON     FAIR      41  33  73 SW7       30.04S
WRAY           NOT AVBL
STERLING       FAIR      39  32  75 S7        30.00S
HOLYOKE        FAIR      39  30  70 SW6       30.02S
FORT MORGAN    FAIR      41  26  55 S3        30.02S
$$

COZ086-089-092>099-180000-
...SOUTHEAST COLORADO...

CITY           SKY/WX    TMP DP  RH WIND       PRES   REMARKS
PUEBLO         FAIR      37  34  89 E7        30.02S
LA JUNTA       FAIR      33  27  78 W6        30.04R WCI  28
LAMAR          FAIR      41  31  67 CALM      30.03F
SPRINGFIELD      N/A     45  34  65 SW7       30.01F
$$




USA.gov is the U.S. government's official web portal to all federal, state and local government web resources and services.